period_start,C,m1,H,J0,J1,J2,J3,J4,J5,JA,JB,JC,JD,JJ,JK,JN,#
2018-03-23 00:04:35,0.23,9.21,0.00,23.77,27.60,30.60,13.93,48.83,1014.59,2022.01,1287.14,1539.71,1756.30,600.18,593.33,35.42,0000 0000 0000 0000 000000
2018-03-23 00:09:37,0.16,9.22,0.00,23.79,27.60,30.61,13.95,48.93,1014.64,2022.01,1286.13,1538.90,1755.27,600.23,593.52,35.47,0000 0000 0000 0000 000000
2018-03-23 00:14:38,0.19,9.23,0.00,23.80,27.60,30.61,13.94,48.97,1014.64,2022.00,1284.91,1538.03,1754.25,600.01,593.20,35.52,0000 0000 0000 0000 000000
2018-03-23 00:19:39,0.20,9.24,0.00,23.81,27.62,30.60,13.98,48.90,1014.65,2022.00,1283.86,1537.16,1753.32,600.20,593.37,35.57,0000 0000 0000 0000 000000
2018-03-23 00:24:40,0.16,9.25,0.00,23.85,27.62,30.64,13.85,48.94,1014.62,2022.01,1282.92,1536.45,1752.47,600.30,593.45,35.63,0000 0000 0000 0000 000000
2018-03-23 00:29:42,0.15,9.26,0.00,23.87,27.62,30.69,13.99,49.05,1014.60,2022.00,1281.92,1535.76,1751.64,600.29,593.24,35.68,0000 0000 0000 0000 000000
2018-03-23 00:34:43,0.14,9.27,0.00,23.90,27.65,30.66,13.91,48.95,1014.64,2022.00,1281.25,1535.03,1750.72,599.96,593.03,35.73,0000 0000 0000 0000 000000
2018-03-23 00:39:45,0.21,9.28,0.00,23.91,27.65,30.65,13.94,49.03,1014.65,2022.00,1280.07,1534.23,1749.62,600.25,593.22,35.78,0000 0000 0000 0000 000000
2018-03-23 00:44:46,0.18,9.29,0.00,23.94,27.67,30.68,13.95,48.95,1014.66,2022.00,1279.06,1533.46,1748.61,600.42,593.49,35.83,0000 0000 0000 0000 000000
2018-03-23 00:49:47,0.18,9.29,0.00,23.97,27.69,30.70,13.90,48.83,1014.66,2022.00,1278.08,1532.61,1747.68,599.98,592.88,35.88,0000 0000 0000 0000 000000
2018-03-23 00:54:48,0.18,9.30,0.00,23.99,27.70,30.71,13.98,48.89,1014.66,2021.99,1276.94,1531.79,1746.69,600.35,593.35,35.93,0000 0000 0000 0000 000000
2018-03-23 00:59:50,0.17,9.31,0.00,24.03,27.72,30.70,13.99,48.91,1014.66,2021.99,1275.94,1530.98,1745.70,600.28,593.09,35.98,0000 0000 0000 0000 000000
2018-03-23 01:04:51,0.18,9.32,0.00,24.07,27.75,30.71,13.85,48.92,1014.66,2021.98,1275.15,1530.10,1744.72,599.88,592.67,36.03,0000 0000 0000 0000 000000
2018-03-23 01:09:52,0.21,9.33,0.00,24.10,27.77,30.71,13.96,48.90,1014.66,2021.88,1273.82,1529.00,1743.46,600.36,593.05,36.08,0000 0000 0000 0000 000000
2018-03-23 01:14:54,0.13,9.34,0.00,24.13,27.81,30.74,13.90,48.91,1014.66,2021.33,1272.69,1527.96,1742.19,599.85,592.34,36.13,0000 0000 0000 0000 000000
2018-03-23 01:19:56,0.29,9.35,0.00,24.17,27.83,30.77,13.83,48.98,1014.66,2021.09,1271.13,1526.68,1740.71,599.89,592.40,36.18,0000 0000 0000 0000 000000
2018-03-23 01:24:57,0.23,9.36,0.00,24.21,27.87,30.79,13.93,48.96,1014.66,2021.02,1269.67,1525.61,1739.49,600.26,592.66,36.23,0000 0000 0000 0000 000000
2018-03-23 01:29:59,0.24,9.38,0.00,24.25,27.91,30.82,13.88,48.83,1014.66,2021.00,1268.29,1524.45,1738.09,600.26,592.57,36.28,0000 0000 0000 0000 000000
2018-03-23 01:35:00,0.24,9.39,0.00,24.30,27.94,30.84,13.86,48.89,1014.67,2021.00,1266.88,1523.33,1736.76,599.68,591.90,36.33,0000 0000 0000 0000 000000
2018-03-23 01:40:02,0.26,9.41,0.00,24.35,27.97,30.88,13.88,48.92,1014.68,2020.97,1265.49,1522.15,1735.43,599.97,592.18,36.38,0000 0000 0000 0000 000000
2018-03-23 01:45:03,0.24,9.42,0.00,24.39,28.00,30.91,13.85,48.87,1014.69,2020.70,1263.88,1520.87,1733.91,599.85,592.10,36.43,0000 0000 0000 0000 000000
2018-03-23 01:50:04,0.18,9.43,0.00,24.44,28.04,31.02,13.86,48.98,1014.77,2020.38,1262.62,1519.83,1732.63,599.80,591.89,36.48,0000 0000 0000 0000 000000
2018-03-23 01:55:05,0.23,9.44,0.00,24.57,28.06,31.18,13.87,48.88,1014.83,2020.04,1261.22,1518.60,1731.21,600.01,591.95,36.54,0000 0000 0000 0000 000000
2018-03-23 02:00:07,0.29,9.45,0.00,24.66,28.08,31.25,13.77,48.74,1014.97,2020.01,1259.63,1517.40,1729.70,599.66,591.42,36.59,0000 0000 0000 0000 000000
2018-03-23 02:05:08,0.29,9.47,0.00,24.71,28.10,31.25,13.82,48.83,1015.05,2020.00,1257.82,1516.05,1728.24,599.59,591.35,36.64,0000 0000 0000 0000 000000
2018-03-23 02:10:09,0.33,9.48,0.00,24.76,28.10,31.15,13.87,48.80,1014.97,2020.00,1256.07,1514.70,1726.77,599.91,591.59,36.69,0000 0000 0000 0000 000000
2018-03-23 02:15:10,0.31,9.50,0.00,24.83,28.10,31.04,13.81,48.96,1014.85,2020.00,1254.04,1513.39,1725.31,599.96,591.23,36.74,0000 0000 0000 0000 000000
2018-03-23 02:20:12,0.26,9.52,0.00,24.87,28.09,30.94,13.80,48.90,1014.98,2020.00,1252.50,1512.21,1723.92,600.00,591.27,36.79,0000 0000 0000 0000 000000
2018-03-23 02:25:13,0.30,9.53,0.00,24.89,28.07,30.87,13.82,48.84,1015.08,2020.00,1250.87,1510.96,1722.49,599.94,591.30,36.84,0000 0000 0000 0000 000000
2018-03-23 02:30:14,0.32,9.54,0.00,24.93,28.06,30.82,13.79,48.83,1015.08,2020.00,1249.09,1509.67,1720.93,600.01,591.42,36.89,0000 0000 0000 0000 000000
2018-03-23 02:35:15,0.30,9.56,0.00,24.96,28.05,30.79,13.90,48.83,1015.11,2020.00,1247.37,1508.37,1719.42,599.93,591.21,36.94,0000 0000 0000 0000 000000
2018-03-23 02:40:17,0.33,9.58,0.00,25.00,28.03,30.75,13.87,48.73,1015.04,2020.00,1245.42,1506.95,1717.77,600.35,591.47,36.99,0000 0000 0000 0000 000000
2018-03-23 02:45:18,0.34,9.59,0.00,25.03,28.02,30.73,13.85,48.75,1015.07,2020.00,1243.56,1505.59,1716.12,600.08,591.15,37.04,0000 0000 0000 0000 000000
2018-03-23 02:50:19,0.34,9.61,0.00,25.08,28.00,30.72,13.79,48.84,1015.12,2020.00,1241.56,1504.07,1714.39,599.70,590.81,37.09,0000 0000 0000 0000 000000
2018-03-23 02:55:21,0.36,9.63,0.00,25.12,27.99,30.63,13.74,48.83,1015.14,2020.00,1239.66,1502.60,1712.74,599.98,590.92,37.14,0000 0000 0000 0000 000000
2018-03-23 03:00:22,0.31,9.65,0.00,25.18,27.97,30.40,13.73,48.74,1015.15,2020.00,1237.83,1501.20,1711.13,599.99,590.83,37.19,0000 0000 0000 0000 000000
2018-03-23 03:05:23,0.37,9.66,0.00,25.23,27.97,30.51,13.74,48.83,1015.15,2020.00,1235.90,1499.73,1709.43,599.87,590.55,37.24,0000 0000 0000 0000 000000
2018-03-23 03:10:25,0.34,9.68,0.00,25.26,27.95,30.53,13.80,48.83,1015.15,2020.00,1233.90,1498.32,1707.72,600.22,590.85,37.29,0000 0000 0000 0000 000000
2018-03-23 03:15:26,0.37,9.70,0.00,25.32,27.95,30.53,13.78,48.77,1015.15,2020.01,1231.93,1496.79,1706.04,600.19,590.69,37.34,0000 0000 0000 0000 000000
2018-03-23 03:20:27,0.35,9.72,0.00,25.36,27.94,30.55,13.75,48.83,1015.15,2020.02,1229.80,1495.33,1704.36,599.87,590.28,37.40,0000 0000 0000 0000 000000
2018-03-23 03:25:28,0.38,9.74,0.00,25.41,27.92,30.55,13.81,48.95,1015.15,2020.00,1227.89,1493.76,1702.52,600.01,590.41,37.45,0000 0000 0000 0000 000000
2018-03-23 03:30:30,0.36,9.76,0.00,25.45,27.92,30.58,13.72,48.76,1015.15,2020.01,1225.81,1492.26,1700.69,599.86,590.14,37.50,0000 0000 0000 0000 000000
2018-03-23 03:35:31,0.39,9.77,0.00,25.48,27.92,30.59,13.82,48.86,1015.15,2020.00,1223.76,1490.67,1698.90,600.11,590.33,37.55,0000 0000 0000 0000 000000
2018-03-23 03:40:32,0.34,9.79,0.00,25.52,27.92,30.62,13.73,48.76,1015.17,2020.01,1221.65,1489.12,1697.17,599.93,590.15,37.60,0000 0000 0000 0000 000000
2018-03-23 03:45:33,0.38,9.81,0.00,25.55,27.92,30.62,13.80,48.88,1015.16,2020.01,1219.71,1487.61,1695.39,600.19,590.39,37.65,0000 0000 0000 0000 000000
2018-03-23 03:50:34,0.35,9.83,0.00,25.59,27.91,30.69,13.74,48.85,1015.17,2020.00,1217.66,1486.11,1693.61,599.76,589.83,37.70,0000 0000 0000 0000 000000
2018-03-23 03:55:36,0.38,9.85,0.00,25.63,27.90,30.65,13.74,48.85,1015.21,2020.00,1215.69,1484.62,1691.87,599.95,589.96,37.75,0000 0000 0000 0000 000000
2018-03-23 04:00:37,0.31,9.87,0.00,25.65,27.90,30.63,13.76,48.65,1015.20,2020.01,1213.84,1483.22,1690.17,600.43,590.30,37.80,0000 0000 0000 0000 000000
2018-03-23 04:05:38,0.36,9.88,0.00,25.52,27.90,30.69,13.78,48.89,1015.22,2020.01,1211.94,1481.75,1688.50,600.04,590.16,37.85,0000 0000 0000 0000 000000
2018-03-23 04:10:40,0.36,9.90,0.00,25.24,27.88,30.72,13.78,48.83,1015.36,2020.01,1209.94,1480.34,1686.78,600.19,590.95,37.90,0000 0000 0000 0000 000000
2018-03-23 04:15:41,0.38,9.92,0.00,25.19,27.87,30.75,13.76,48.89,1015.38,2020.00,1207.82,1478.79,1685.06,599.77,590.70,37.95,0000 0000 0000 0000 000000
2018-03-23 04:20:42,0.34,9.94,0.00,25.16,27.85,30.74,13.76,48.92,1015.38,2020.01,1205.91,1477.41,1683.47,599.84,590.76,38.00,0000 0000 0000 0000 000000
2018-03-23 04:25:43,0.38,9.96,0.00,25.13,27.84,30.73,13.83,48.95,1015.48,2020.04,1203.80,1475.88,1681.73,600.00,591.10,38.05,0000 0000 0000 0000 000000
2018-03-23 04:30:44,0.36,9.98,0.00,25.11,27.82,30.73,13.81,49.00,1015.51,2020.07,1201.78,1474.51,1680.08,600.13,591.41,38.10,0000 0000 0000 0000 000000
2018-03-23 04:35:46,0.35,10.00,0.00,25.13,27.82,30.73,13.84,49.09,1015.56,2020.09,1199.92,1473.00,1678.39,600.32,591.48,38.15,0000 0000 0000 0000 000000
2018-03-23 04:40:47,0.38,10.01,0.00,25.11,27.80,30.70,13.73,49.08,1015.61,2020.12,1197.94,1471.66,1676.70,599.50,590.83,38.20,0000 0000 0000 0000 000000
2018-03-23 04:45:48,0.40,10.04,0.00,25.13,27.80,30.70,13.76,49.05,1015.63,2020.37,1195.90,1470.20,1674.97,599.70,591.07,38.25,0000 0000 0000 0000 000000
2018-03-23 04:50:50,0.44,10.06,0.00,25.14,27.79,30.67,13.80,49.08,1015.64,2020.46,1193.54,1468.61,1673.00,599.79,591.02,38.30,0000 0000 0000 0000 000000
2018-03-23 04:55:51,0.47,10.08,0.00,25.15,27.77,30.63,13.76,48.98,1015.64,2020.66,1191.19,1466.89,1671.06,599.47,590.65,38.35,0000 0000 0000 0000 000000
2018-03-23 05:00:52,0.39,10.10,0.00,25.18,27.77,30.55,13.85,48.88,1015.64,2020.67,1188.91,1465.28,1669.14,600.07,591.15,38.41,0000 0000 0000 0000 000000
2018-03-23 05:05:54,0.44,10.12,0.00,25.20,27.77,30.56,13.80,48.88,1015.64,2020.79,1186.69,1463.67,1667.32,599.84,590.93,38.46,0000 0000 0000 0000 000000
2018-03-23 05:10:55,0.42,10.14,0.00,25.22,27.77,30.55,13.80,48.91,1015.64,2020.76,1184.32,1461.94,1665.37,600.00,591.02,38.51,0000 0000 0000 0000 000000
2018-03-23 05:15:56,0.45,10.17,0.00,25.25,27.76,30.54,13.78,48.89,1015.64,2020.83,1181.97,1460.31,1663.45,600.16,591.21,38.56,0000 0000 0000 0000 000000
2018-03-23 05:20:57,0.43,10.19,0.00,25.26,27.76,30.52,13.75,48.89,1015.65,2020.94,1179.67,1458.67,1661.64,600.01,590.97,38.61,0000 0000 0000 0000 000000
2018-03-23 05:25:58,0.41,10.21,0.00,25.26,27.75,30.56,13.72,48.83,1015.65,2020.94,1177.42,1457.04,1659.75,599.93,591.00,38.66,0000 0000 0000 0000 000000
2018-03-23 05:31:00,0.42,10.23,0.00,25.31,27.76,30.56,13.74,48.87,1015.65,2020.89,1175.17,1455.40,1657.85,599.37,590.09,38.71,0000 0000 0000 0000 000000
2018-03-23 05:36:01,0.42,10.25,0.00,25.33,27.77,30.54,13.80,48.86,1015.66,2020.91,1172.95,1453.74,1655.99,600.03,590.86,38.76,0000 0000 0000 0000 000000
2018-03-23 05:41:02,0.37,10.27,0.00,25.38,27.77,30.56,13.80,48.83,1015.77,2020.82,1170.77,1452.19,1654.13,600.21,590.95,38.81,0000 0000 0000 0000 000000
2018-03-23 05:46:03,0.39,10.29,0.00,25.38,27.77,30.57,13.80,48.97,1016.04,2020.71,1168.73,1450.62,1652.28,599.67,590.54,38.86,0000 0000 0000 0000 000000
2018-03-23 05:51:05,0.35,10.31,0.00,25.40,27.77,30.58,13.88,48.98,1016.08,2020.59,1166.72,1449.06,1650.52,599.89,590.91,38.91,0000 0000 0000 0000 000000
2018-03-23 05:56:06,0.35,10.33,0.00,25.44,27.77,30.59,13.80,48.92,1016.08,2020.25,1164.72,1447.58,1648.73,600.06,590.87,38.96,0000 0000 0000 0000 000000
2018-03-23 06:01:07,0.35,10.35,0.00,25.47,27.79,30.60,13.80,48.98,1016.12,2020.09,1162.79,1446.04,1647.00,600.03,590.83,39.01,0000 0000 0000 0000 000000
2018-03-23 06:06:09,0.39,10.37,0.00,25.51,27.80,30.61,13.73,48.83,1016.13,2020.06,1160.77,1444.56,1645.26,600.13,590.86,39.06,0000 0000 0000 0000 000000
2018-03-23 06:11:10,0.39,10.39,0.00,25.53,27.80,30.63,13.78,48.77,1016.12,2020.04,1158.68,1442.99,1643.50,600.25,590.88,39.11,0000 0000 0000 0000 000000
2018-03-23 06:16:11,0.41,10.41,0.00,25.56,27.80,30.65,13.83,48.74,1016.13,2020.04,1156.58,1441.45,1641.66,599.98,590.59,39.16,0000 0000 0000 0000 000000
2018-03-23 06:21:12,0.44,10.43,0.00,25.59,27.82,30.65,13.76,48.88,1016.13,2020.04,1154.36,1439.80,1639.80,600.23,590.94,39.21,0000 0000 0000 0000 000000
2018-03-23 06:26:14,0.43,10.45,0.00,25.61,27.82,30.71,13.75,48.84,1016.14,2020.03,1152.10,1438.13,1637.93,599.62,590.16,39.27,0000 0000 0000 0000 000000
2018-03-23 06:31:15,0.41,10.47,0.00,25.63,27.84,30.70,13.76,48.83,1016.14,2020.01,1149.98,1436.51,1636.04,599.89,590.32,39.32,0000 0000 0000 0000 000000
2018-03-23 06:36:16,0.39,10.49,0.00,25.67,27.85,30.73,13.83,48.98,1016.14,2020.00,1147.94,1434.91,1634.20,599.96,590.40,39.37,0000 0000 0000 0000 000000
2018-03-23 06:41:18,0.39,10.51,0.00,25.69,27.86,30.75,13.83,48.94,1016.27,2020.00,1145.98,1433.45,1632.50,600.07,590.62,39.42,0000 0000 0000 0000 000000
2018-03-23 06:46:19,0.42,10.53,0.00,25.71,27.87,30.76,13.72,48.77,1016.34,2020.00,1143.90,1431.86,1630.64,599.93,590.36,39.47,0000 0000 0000 0000 000000
2018-03-23 06:51:21,0.40,10.56,0.00,25.73,27.89,30.80,13.75,48.83,1016.40,2020.00,1141.83,1430.33,1628.80,600.18,590.69,39.52,0000 0000 0000 0000 000000
2018-03-23 06:56:22,0.46,10.58,0.00,25.75,27.90,30.82,13.79,48.94,1016.55,2020.00,1139.48,1428.67,1626.96,599.79,590.37,39.57,0000 0000 0000 0000 000000
2018-03-23 07:01:23,0.47,10.60,0.00,25.77,27.92,30.82,13.84,48.87,1016.60,2019.99,1137.00,1426.99,1625.00,600.45,590.95,39.62,0000 0000 0000 0000 000000
2018-03-23 07:06:25,0.43,10.62,0.00,25.79,27.94,30.84,13.78,48.84,1016.62,2019.97,1134.57,1425.33,1623.02,599.88,590.40,39.67,0000 0000 0000 0000 000000
2018-03-23 07:11:26,0.49,10.65,0.00,25.83,27.95,30.85,13.74,48.84,1016.62,2019.91,1132.05,1423.63,1621.11,599.99,590.42,39.72,0000 0000 0000 0000 000000
2018-03-23 07:16:27,0.36,10.67,0.00,25.83,27.97,30.90,13.72,48.67,1016.62,2019.75,1129.73,1422.00,1619.25,600.02,590.45,39.77,0000 0000 0000 0000 000000
2018-03-23 07:21:28,0.35,10.69,0.00,25.86,28.00,30.91,13.80,48.77,1016.62,2019.23,1127.73,1420.46,1617.41,599.86,590.23,39.82,0000 0000 0000 0000 000000
2018-03-23 07:26:30,0.47,10.71,0.00,25.87,28.01,30.92,13.72,48.74,1016.63,2019.06,1125.29,1418.78,1615.51,599.92,590.23,39.87,0000 0000 0000 0000 000000
2018-03-23 07:31:31,0.47,10.73,0.00,25.91,28.02,30.95,13.78,48.78,1016.65,2019.05,1122.70,1417.16,1613.55,599.92,590.21,39.92,0000 0000 0000 0000 000000
2018-03-23 07:36:32,0.46,10.76,0.00,25.93,28.05,30.98,13.86,48.91,1016.70,2019.03,1120.18,1415.49,1611.65,600.55,590.78,39.97,0000 0000 0000 0000 000000
2018-03-23 07:41:34,0.44,10.78,0.00,25.94,28.06,30.98,13.76,48.70,1016.68,2019.01,1118.06,1413.87,1609.81,599.86,590.12,40.02,0000 0000 0000 0000 000000
2018-03-23 07:46:36,0.43,10.80,0.00,25.93,28.07,31.01,13.67,48.90,1016.76,2019.00,1115.82,1412.30,1607.96,599.69,589.86,40.07,0000 0000 0000 0000 000000
2018-03-23 07:51:37,0.43,10.82,0.00,25.93,28.08,31.01,13.78,48.76,1017.03,2019.00,1113.67,1410.70,1606.15,600.09,590.57,40.12,0000 0000 0000 0000 000000
2018-03-23 07:56:38,0.40,10.84,0.00,25.94,28.10,31.00,13.82,48.70,1017.08,2018.99,1111.52,1409.21,1604.32,599.94,590.36,40.17,0000 0000 0000 0000 000000
2018-03-23 08:01:40,0.49,10.87,0.00,25.92,28.10,31.07,13.78,48.65,1017.10,2018.98,1109.14,1407.62,1602.49,600.30,590.88,40.23,0000 0000 0000 0000 000000
2018-03-23 08:06:41,0.45,10.89,0.00,25.94,28.12,31.05,13.74,48.71,1017.10,2018.97,1106.69,1406.00,1600.63,600.12,590.37,40.28,0000 0000 0000 0000 000000
2018-03-23 08:11:42,0.44,10.91,0.00,25.95,28.12,31.07,13.78,48.65,1017.10,2018.89,1104.34,1404.43,1598.85,599.94,590.38,40.33,0000 0000 0000 0000 000000
2018-03-23 08:16:44,0.45,10.94,0.00,25.95,28.13,31.06,13.72,48.70,1017.12,2018.78,1101.93,1402.77,1597.07,599.83,590.42,40.38,0000 0000 0000 0000 000000
2018-03-23 08:21:45,0.39,10.96,0.00,25.97,28.15,31.09,13.76,48.61,1017.12,2018.48,1099.70,1401.17,1595.19,600.11,590.57,40.43,0000 0000 0000 0000 000000
2018-03-23 08:26:47,0.43,10.98,0.00,25.97,28.15,31.12,13.77,48.64,1017.14,2018.38,1097.30,1399.57,1593.25,600.06,590.48,40.48,0000 0000 0000 0000 000000
2018-03-23 08:31:48,0.50,11.00,0.00,25.99,28.17,31.14,13.72,48.50,1017.24,2018.24,1094.93,1397.86,1591.37,600.15,590.58,40.53,0000 0000 0000 0000 000000
2018-03-23 08:36:49,0.46,11.03,0.00,26.00,28.17,31.14,13.74,48.62,1017.33,2018.19,1092.41,1396.22,1589.50,599.95,590.44,40.58,0000 0000 0000 0000 000000
2018-03-23 08:41:51,0.50,11.05,0.00,26.02,28.17,31.17,13.78,48.63,1017.45,2018.12,1089.89,1394.54,1587.57,599.89,590.35,40.63,0000 0000 0000 0000 000000
2018-03-23 08:46:52,0.43,11.07,0.00,26.04,28.19,31.17,13.70,48.58,1017.57,2018.09,1087.72,1392.92,1585.72,600.08,590.50,40.68,0000 0000 0000 0000 000000
2018-03-23 08:51:53,0.42,11.10,0.00,26.07,28.20,31.21,13.81,48.62,1017.59,2018.05,1085.76,1391.38,1583.87,600.39,590.75,40.73,0000 0000 0000 0000 000000
2018-03-23 08:56:55,0.42,11.12,0.00,26.07,28.20,31.21,13.73,48.67,1017.59,2018.01,1083.71,1389.77,1582.06,599.94,590.26,40.78,0000 0000 0000 0000 000000
2018-03-23 09:01:56,0.44,11.14,0.00,26.08,28.22,31.24,13.80,48.68,1017.60,2018.00,1081.60,1388.21,1580.23,600.07,590.52,40.83,0000 0000 0000 0000 000000
2018-03-23 09:06:57,0.44,11.16,0.00,26.08,28.22,31.26,13.72,48.63,1017.60,2018.00,1079.51,1386.66,1578.49,599.86,590.41,40.88,0000 0000 0000 0000 000000
2018-03-23 09:11:59,0.40,11.18,0.00,26.03,28.25,31.27,13.78,48.70,1017.60,2018.00,1077.55,1385.22,1576.77,599.93,590.57,40.93,0000 0000 0000 0000 000000
2018-03-23 09:17:00,0.41,11.21,0.00,26.00,28.25,31.30,13.75,48.71,1017.61,2018.00,1075.67,1383.78,1575.07,600.13,590.86,40.98,0000 0000 0000 0000 000000
2018-03-23 09:22:01,0.43,11.23,0.00,26.00,28.26,31.27,13.81,48.78,1017.73,2018.00,1073.64,1382.30,1573.34,600.23,590.92,41.03,0000 0000 0000 0000 000000
2018-03-23 09:27:03,0.45,11.25,0.00,25.96,28.27,31.25,13.75,48.65,1017.91,2018.00,1071.56,1380.74,1571.61,600.46,591.34,41.08,0000 0000 0000 0000 000000
2018-03-23 09:32:04,0.42,11.27,0.00,25.94,28.27,31.26,13.80,48.70,1017.82,2017.99,1069.51,1379.21,1569.85,599.92,590.85,41.14,0000 0000 0000 0000 000000
2018-03-23 09:37:05,0.42,11.29,0.00,25.93,28.27,31.26,13.69,48.65,1017.96,2017.98,1067.59,1377.74,1568.15,599.83,590.85,41.19,0000 0000 0000 0000 000000
2018-03-23 09:42:06,0.42,11.31,0.00,25.92,28.27,31.25,13.78,48.67,1018.05,2017.97,1065.57,1376.32,1566.39,600.01,591.02,41.24,0000 0000 0000 0000 000000
2018-03-23 09:47:08,0.46,11.34,0.00,25.90,28.28,31.24,13.72,48.66,1018.06,2017.98,1063.47,1374.72,1564.61,599.56,590.72,41.29,0000 0000 0000 0000 000000
2018-03-23 09:52:09,0.43,11.36,0.00,25.87,28.28,31.26,13.83,48.70,1018.08,2017.97,1061.34,1373.20,1562.83,600.18,591.34,41.34,0000 0000 0000 0000 000000
2018-03-23 09:57:11,0.47,11.38,0.00,25.85,28.27,31.25,13.80,48.71,1018.08,2017.97,1059.30,1371.59,1561.03,600.03,591.30,41.39,0000 0000 0000 0000 000000
2018-03-23 10:02:12,0.64,11.41,0.00,25.81,28.27,31.25,13.79,48.67,1018.08,2017.96,1056.42,1369.49,1558.54,600.12,591.33,41.44,0000 0000 0000 0000 000000
2018-03-23 10:07:13,0.63,11.44,0.00,25.81,28.27,31.24,13.85,48.76,1018.08,2017.98,1053.50,1367.34,1556.01,600.41,591.74,41.49,0000 0000 0000 0000 000000
2018-03-23 10:12:15,0.66,11.48,0.00,25.79,28.27,31.24,13.72,48.72,1018.09,2017.97,1050.47,1365.08,1553.41,599.49,590.93,41.54,0000 0000 0000 0000 000000
2018-03-23 10:17:16,0.58,11.51,0.00,25.78,28.27,31.21,13.72,48.70,1018.09,2017.97,1047.84,1363.00,1550.90,599.88,591.17,41.59,0000 0000 0000 0000 000000
2018-03-23 10:22:17,0.64,11.54,0.00,25.74,28.25,31.22,13.79,48.80,1018.11,2017.96,1044.93,1360.85,1548.38,600.02,591.45,41.64,0000 0000 0000 0000 000000
2018-03-23 10:27:19,0.50,11.57,0.03,25.72,28.25,31.21,13.88,48.80,1018.20,2017.96,1042.50,1359.02,1546.28,600.05,591.43,41.69,0000 0000 0000 0000 000000
2018-03-23 10:32:20,0.50,11.59,1.00,25.70,28.25,31.21,13.84,48.73,1018.41,2017.97,1040.25,1357.32,1544.27,600.05,591.69,41.74,0000 0000 0000 0000 000000
2018-03-23 10:37:22,0.54,11.62,1.00,25.68,28.23,31.21,13.75,48.76,1018.46,2017.97,1037.87,1355.54,1542.13,599.94,591.64,41.79,0000 0000 0000 0000 000000
2018-03-23 10:42:23,0.63,11.65,1.00,25.66,28.22,31.19,13.80,48.84,1018.48,2017.99,1035.13,1353.45,1539.67,600.05,591.82,41.84,0000 0000 0000 0000 000000
2018-03-23 10:47:24,0.56,11.68,1.00,25.64,28.22,31.20,13.74,48.71,1018.52,2017.98,1032.52,1351.45,1537.30,599.84,591.71,41.89,0000 0000 0000 0000 000000
2018-03-23 10:52:25,0.54,11.71,1.00,25.61,28.20,31.21,13.81,48.83,1018.56,2017.98,1030.18,1349.61,1535.26,600.45,592.30,41.95,0000 0000 0000 0000 000000
2018-03-23 10:57:27,0.55,11.74,1.00,25.60,28.20,31.20,13.87,48.86,1018.57,2017.99,1027.61,1347.72,1533.19,599.95,591.93,42.00,0000 0000 0000 0000 000000
2018-03-23 11:02:28,0.56,11.77,1.00,25.57,28.18,31.19,13.72,48.82,1018.56,2017.99,1025.15,1345.94,1531.10,599.58,591.73,42.05,0000 0000 0000 0000 000000
2018-03-23 11:07:29,0.55,11.79,1.00,25.54,28.17,31.15,13.86,48.89,1018.57,2017.99,1022.75,1344.04,1528.86,600.15,592.29,42.10,0000 0000 0000 0000 000000
2018-03-23 11:12:30,0.47,11.82,1.00,25.53,28.16,31.13,13.82,48.91,1018.56,2017.99,1020.66,1342.38,1526.63,599.84,591.99,42.15,0000 0000 0000 0000 000000
2018-03-23 11:17:32,0.67,11.85,1.00,25.51,28.15,31.16,13.88,48.92,1018.57,2017.99,1017.88,1340.31,1524.12,600.10,592.26,42.20,0000 0000 0000 0000 000000
2018-03-23 11:22:33,0.79,11.89,1.00,25.48,28.12,31.16,13.85,48.74,1018.57,2017.99,1014.53,1337.87,1521.28,600.09,592.22,42.25,0000 0000 0000 0000 000000
2018-03-23 11:27:34,0.75,11.93,1.00,25.46,28.11,31.15,13.85,48.90,1018.57,2017.99,1011.18,1335.38,1518.24,599.95,592.32,42.30,0000 0000 0000 0000 000000
2018-03-23 11:32:35,0.70,11.96,1.00,25.44,28.09,31.15,13.84,48.73,1018.55,2017.99,1008.19,1333.04,1515.38,599.99,592.24,42.35,0000 0000 0000 0000 000000
2018-03-23 11:37:37,0.68,12.00,1.00,25.41,28.07,31.15,13.82,48.79,1018.50,2017.99,1005.21,1330.90,1512.92,600.00,592.32,42.40,0000 0000 0000 0000 000000
2018-03-23 11:42:38,0.62,12.03,1.00,25.37,28.05,31.13,13.86,48.89,1018.45,2017.99,1002.42,1328.87,1510.43,600.12,592.53,42.45,0000 0000 0000 0000 000000
2018-03-23 11:47:39,0.64,12.06,1.00,25.34,28.03,31.10,13.85,48.87,1018.44,2018.01,999.67,1326.78,1508.01,600.20,592.55,42.50,0000 0000 0000 0000 000000
2018-03-23 11:52:40,0.55,12.09,1.00,25.33,28.01,31.12,13.76,48.87,1018.38,2018.03,997.26,1324.90,1505.79,599.96,592.29,42.55,0000 0000 0000 0000 000000
2018-03-23 11:57:42,0.51,12.12,1.00,25.31,27.99,31.06,13.80,48.83,1018.26,2018.08,995.03,1323.30,1503.85,599.89,592.21,42.60,0000 0000 0000 0000 000000
2018-03-23 12:02:43,0.45,12.14,1.00,25.29,27.96,31.09,13.86,48.78,1018.19,2018.27,993.27,1321.82,1502.14,600.02,592.40,42.65,0000 0000 0000 0000 000000
2018-03-23 12:07:44,0.48,12.17,1.00,25.25,27.94,31.06,13.80,48.77,1018.14,2018.48,991.38,1320.44,1500.52,599.82,592.32,42.70,0000 0000 0000 0000 000000
2018-03-23 12:12:45,0.46,12.19,1.00,25.22,27.91,31.05,13.81,48.87,1018.13,2018.78,989.54,1319.18,1499.01,599.89,592.27,42.75,0000 0000 0000 0000 000000
2018-03-23 12:17:47,0.39,12.21,1.00,25.20,27.89,31.04,13.83,48.97,1018.10,2018.95,987.90,1317.94,1497.58,600.15,592.52,42.80,0000 0000 0000 0000 000000
2018-03-23 12:22:48,0.41,12.23,1.00,25.17,27.87,31.02,13.85,48.88,1018.10,2018.96,986.21,1316.66,1496.12,600.07,592.59,42.85,0000 0000 0000 0000 000000
2018-03-23 12:27:50,0.41,12.25,0.87,25.13,27.84,30.98,13.90,48.82,1018.13,2018.99,984.44,1315.46,1494.71,600.04,592.71,42.91,0000 0000 0000 0000 000000
2018-03-23 12:32:51,0.42,12.27,0.00,25.10,27.82,30.95,13.88,48.85,1018.25,2018.99,982.58,1314.12,1493.17,600.19,592.89,42.96,0000 0000 0000 0000 000000
2018-03-23 12:37:52,0.46,12.30,0.00,25.08,27.80,30.98,13.90,48.96,1018.40,2018.99,980.79,1312.74,1491.57,600.13,593.02,43.01,0000 0000 0000 0000 000000
2018-03-23 12:42:53,0.40,12.32,0.00,25.04,27.77,30.97,13.83,48.98,1018.44,2019.00,978.98,1311.41,1490.08,599.72,592.73,43.06,0000 0000 0000 0000 000000
2018-03-23 12:47:54,0.40,12.34,0.00,25.01,27.75,30.92,13.93,49.07,1018.53,2019.01,977.22,1310.17,1488.59,600.01,593.22,43.11,0000 0000 0000 0000 000000
2018-03-23 12:52:55,0.41,12.36,0.00,24.97,27.72,30.91,13.84,49.12,1018.47,2019.22,975.67,1309.00,1487.33,599.78,592.90,43.16,0000 0000 0000 0000 000000